Regional Weather Roundup
Issued by NWS Charleston, WV

Home | Current Version | Previous Version | Graphics & Text | Print | Product List | Glossary On
Versions: 1 2 3 4 5 6 7 8 9 10 11 12 13 14 15 16 17 18 19 20 21 22 23 24 25 26 27 28 29 30 31 32 33 34 35 36 37 38 39 40 41 42 43 44 45 46 47 48 49 50
000
ASUS41 KRLX 040310
RWRRLX
West Virginia Regional Weather Roundup
National Weather Service Charleston WV
1100 PM EDT FRI JUL 03 2015

Note: "fair" indicates few or no clouds below 12,000 feet with no
significant weather and/or obstructions to visibility.

WVZ003-040400-
Northern Panhandle of West Virginia

CITY           SKY/WX    TMP DP  RH WIND       PRES   REMARKS
WHEELING       CLOUDY    66  64  93 E8        29.88S
$$

WVZ009-040400-
Northwest West Virginia

CITY           SKY/WX    TMP DP  RH WIND       PRES   REMARKS
PARKERSBURG    CLOUDY    66  64  93 CALM      29.88S FOG
$$

WVZ006-040400-
Western West Virginia

CITY           SKY/WX    TMP DP  RH WIND       PRES   REMARKS
HUNTINGTON     CLOUDY    68  68 100 SW3       29.89R FOG
$$

WVZ015-040400-
West Central West Virginia

CITY           SKY/WX    TMP DP  RH WIND       PRES   REMARKS
CHARLESTON     CLOUDY    71  69  93 CALM      29.88R FOG
$$

WVZ022-031-040400-
North Central West Virginia

CITY           SKY/WX    TMP DP  RH WIND       PRES   REMARKS
CLARKSBURG     CLOUDY    67  66  97 CALM      29.89S
MORGANTOWN     LGT RAIN  68  63  84 CALM      29.91S
$$

WVZ025-035-042-045-040400-
Southern West Virginia

CITY           SKY/WX    TMP DP  RH WIND       PRES   REMARKS
BECKLEY        CLOUDY    67  63  87 S7        29.97R
LOGAN          DRIZZLE   70  68  94 CALM      29.89R
BLUEFIELD      LGT RAIN  67  63  87 CALM      30.00R
LEWISBURG      MOCLDY    65  63  93 CALM      29.98S FOG
$$

WVZ047-040400-
Northern Mountains of West Virginia

CITY           SKY/WX    TMP DP  RH WIND       PRES   REMARKS
ELKINS         CLOUDY    65  61  87 S5        29.95R
$$

WVZ052-040400-
Eastern Panhandle of West Virginia

CITY           SKY/WX    TMP DP  RH WIND       PRES   REMARKS
MARTINSBURG    CLOUDY    70  65  84 CALM      29.94S
PETERSBURG     CLOUDY    65  62  90 CALM      29.95S FOG
$$



USA.gov is the U.S. government's official web portal to all federal, state and local government web resources and services.